Weather History for KCAV - February, 2013

Change the Weather History Date:

Saturday, February 23, 2013

  Actual Average Record
Temperature  
Mean Temperature 12 °F -  
Max Temperature 24 °F - - ()
Min Temperature 1 °F - - ()
Degree Days  
Heating Degree Days 52    
Moisture  
Dew Point 10 °F    
Average Humidity 82    
Maximum Humidity 93    
Minimum Humidity 69    
Precipitation  
Precipitation 0.00 in - - ()
Sea Level Pressure  
Sea Level Pressure 29.90 in    
Wind  
Wind Speed 8 mph (SSW)    
Max Wind Speed 13 mph    
Max Gust Speed -    
Visibility 10 miles    
Events Snow    
T = Trace of Precipitation, MM = Missing Value Source: NWS Daily Summary

Daily Weather History Graph

Daily Weather History Graph

Search for Another Location

Airport or City:

Trip Planner

Search our weather history database for the weather conditions in past years. The results will help you decide how hot, cold, wet, or windy it might be!

Date:

Astronomy

Feb. 23, 2013 Rise Set
Actual Time 6:59 AM CST 5:57 PM CST
Civil Twilight 6:31 AM CST 6:26 PM CST
Nautical Twilight 5:58 AM CST 6:58 PM CST
Astronomical Twilight 5:25 AM CST 7:31 PM CST
Moon 4:07 PM CST (2/23) 5:24 AM CST (2/23)
Length of Visible Light 11h 54m
Length of Day
10h 57m
Waxing Gibbous, 95% of the Moon is Illuminated
Feb 23
Waxing Gibbous
Feb 25
Full
Mar 4
Last Quarter
Mar 11
New
Mar 19
First Quarter

Hourly Weather History & Observations

Time (CST) Temp. Windchill Dew Point Humidity Pressure Visibility Wind Dir Wind Speed Gust Speed Precip Events Conditions
12:55 AM 17.6 °F 4.3 °F 14.0 °F 86% 29.92 in 10.0 mi West 12.7 mph - N/A   Overcast
1:15 AM 17.6 °F 5.7 °F 14.0 °F 86% 29.92 in 10.0 mi West 10.4 mph - N/A   Overcast
1:35 AM 17.6 °F 5.0 °F 14.0 °F 86% 29.92 in 10.0 mi West 11.5 mph - N/A   Overcast
1:55 AM 17.6 °F 5.7 °F 14.0 °F 86% 29.92 in 10.0 mi West 10.4 mph - N/A   Overcast
2:15 AM 17.6 °F 4.3 °F 14.0 °F 86% 29.91 in 10.0 mi West 12.7 mph - N/A   Overcast
2:35 AM 15.8 °F 3.4 °F 12.2 °F 86% 29.91 in 10.0 mi West 10.4 mph - N/A   Scattered Clouds
2:55 AM 15.8 °F 3.4 °F 12.2 °F 86% 29.90 in 10.0 mi West 10.4 mph - N/A   Scattered Clouds
3:15 AM 14.0 °F 1.2 °F 10.4 °F 86% 29.90 in 10.0 mi West 10.4 mph - N/A Snow Light Snow
3:35 AM 12.2 °F -1.0 °F 10.4 °F 92% 29.90 in 10.0 mi West 10.4 mph - N/A   Clear
3:55 AM 12.2 °F -1.0 °F 8.6 °F 85% 29.91 in 10.0 mi West 10.4 mph - N/A   Clear
4:15 AM 12.2 °F 1.7 °F 8.6 °F 85% 29.90 in 10.0 mi West 6.9 mph - N/A   Partly Cloudy
4:35 AM 10.4 °F -0.4 °F 8.6 °F 92% 29.91 in 10.0 mi West 6.9 mph - N/A   Mostly Cloudy
4:55 AM 10.4 °F -1.5 °F 6.8 °F 85% 29.91 in 10.0 mi West 8.1 mph - N/A   Scattered Clouds
5:15 AM 10.4 °F -0.4 °F 6.8 °F 85% 29.91 in 10.0 mi West 6.9 mph - N/A   Clear
5:35 AM 8.6 °F -2.6 °F 5.0 °F 85% 29.90 in 10.0 mi WNW 6.9 mph - N/A   Clear
6:15 AM 5.0 °F -8.1 °F 1.4 °F 85% 29.91 in 10.0 mi West 8.1 mph - N/A   Clear
6:35 AM 5.0 °F -6.9 °F -0.4 °F 78% 29.92 in 10.0 mi SW 6.9 mph - N/A   Clear
6:55 AM 5.0 °F -4.1 °F 1.4 °F 85% 29.92 in - SW 4.6 mph - N/A   Partly Cloudy
7:15 AM 5.0 °F -4.1 °F 1.4 °F 85% 29.91 in 9.0 mi SW 4.6 mph - N/A   Clear
7:35 AM 1.4 °F -12.5 °F -2.2 °F 85% 29.92 in 9.0 mi WSW 8.1 mph - N/A   Clear
7:55 AM 3.2 °F -7.8 °F -0.4 °F 85% 29.92 in 9.0 mi SW 5.8 mph - N/A   Clear
8:15 AM 3.2 °F - -0.4 °F 85% 29.91 in 10.0 mi Calm Calm - N/A   Clear
8:35 AM 5.0 °F -4.1 °F 1.4 °F 85% 29.92 in 9.0 mi SSW 4.6 mph - N/A   Clear
8:55 AM 6.8 °F - 1.4 °F 79% 29.92 in 10.0 mi Calm Calm - N/A   Clear
9:15 AM 8.6 °F 2.0 °F 5.0 °F 85% 29.92 in 10.0 mi SW 3.5 mph - N/A   Clear
9:35 AM 10.4 °F 2.2 °F 5.0 °F 79% 29.92 in 10.0 mi SSW 4.6 mph - N/A   Clear
9:55 AM 10.4 °F 0.8 °F 6.8 °F 85% 29.92 in 10.0 mi SW 5.8 mph - N/A   Clear
10:15 AM 12.2 °F 0.7 °F 8.6 °F 85% 29.91 in 10.0 mi WSW 8.1 mph - N/A   Clear
10:35 AM 14.0 °F 5.1 °F 8.6 °F 79% 29.92 in 10.0 mi WSW 5.8 mph - N/A   Clear
10:55 AM 14.0 °F 5.1 °F 8.6 °F 79% 29.92 in 10.0 mi SW 5.8 mph - N/A   Clear
11:15 AM 15.8 °F 8.6 °F 10.4 °F 79% 29.92 in 10.0 mi WSW 4.6 mph - N/A   Clear
11:35 AM 17.6 °F 10.7 °F 10.4 °F 73% 29.92 in 10.0 mi WSW 4.6 mph - N/A   Clear
11:55 AM 17.6 °F 10.7 °F 12.2 °F 79% 29.92 in 10.0 mi WSW 4.6 mph - N/A   Clear
12:15 PM 19.4 °F 14.3 °F 12.2 °F 74% 29.91 in 10.0 mi SW 3.5 mph - N/A   Clear
12:35 PM 19.4 °F - 14.0 °F 80% 29.91 in 10.0 mi Calm Calm - N/A   Clear
12:55 PM 21.2 °F 16.4 °F 15.8 °F 80% 29.90 in 10.0 mi Variable 3.5 mph - N/A   Clear
1:15 PM 21.2 °F 13.6 °F 15.8 °F 80% 29.89 in 10.0 mi WSW 5.8 mph - N/A   Clear
1:35 PM 21.2 °F 14.9 °F 15.8 °F 80% 29.89 in 10.0 mi SW 4.6 mph - N/A   Clear
1:55 PM 23.0 °F 17.0 °F 15.8 °F 74% 29.89 in 10.0 mi SW 4.6 mph - N/A   Clear
2:15 PM 23.0 °F - 15.8 °F 74% 29.88 in 10.0 mi Calm Calm - N/A   Clear
2:35 PM 23.0 °F - 15.8 °F 74% 29.88 in 10.0 mi Calm Calm - N/A   Clear
2:55 PM 23.0 °F - 15.8 °F 74% 29.88 in 10.0 mi Calm Calm - N/A   Clear
3:15 PM 24.8 °F 19.1 °F 17.6 °F 74% 29.88 in 10.0 mi SW 4.6 mph - N/A   Clear
3:35 PM 24.8 °F 20.5 °F 15.8 °F 69% 29.88 in 10.0 mi SW 3.5 mph - N/A   Clear
3:55 PM 24.8 °F - 15.8 °F 69% 29.88 in 10.0 mi Calm Calm - N/A   Clear
4:15 PM 24.8 °F 19.1 °F 17.6 °F 74% 29.88 in 10.0 mi South 4.6 mph - N/A   Clear
4:35 PM 23.0 °F 18.4 °F 15.8 °F 74% 29.88 in 10.0 mi SSE 3.5 mph - N/A   Clear
4:55 PM 23.0 °F 17.0 °F 15.8 °F 74% 29.88 in 10.0 mi SSE 4.6 mph - N/A   Clear
5:15 PM 21.2 °F 13.6 °F 15.8 °F 80% 29.88 in 10.0 mi SSE 5.8 mph - N/A   Clear
5:35 PM 19.4 °F 11.5 °F 14.0 °F 80% 29.88 in 10.0 mi SSE 5.8 mph - N/A   Clear
5:55 PM 17.6 °F 8.2 °F 12.2 °F 79% 29.88 in 10.0 mi SSE 6.9 mph - N/A   Clear
6:15 PM 19.4 °F 11.5 °F 14.0 °F 80% 29.88 in 10.0 mi SE 5.8 mph - N/A   Clear
6:55 PM 10.4 °F -1.5 °F 6.8 °F 85% 29.88 in 10.0 mi East 8.1 mph - N/A   Clear
7:15 PM 12.2 °F 1.7 °F 8.6 °F 85% 29.89 in 10.0 mi ESE 6.9 mph - N/A   Clear
7:35 PM 10.4 °F -0.4 °F 5.0 °F 79% 29.89 in 10.0 mi ESE 6.9 mph - N/A   Clear
7:55 PM 12.2 °F 0.7 °F 6.8 °F 79% 29.90 in 10.0 mi ESE 8.1 mph - N/A   Clear
8:15 PM 14.0 °F 2.0 °F 12.2 °F 93% 29.90 in 10.0 mi ESE 9.2 mph - N/A   Clear
8:35 PM 14.0 °F 5.1 °F 8.6 °F 79% 29.90 in 10.0 mi ESE 5.8 mph - N/A   Clear
9:15 PM 10.4 °F -1.5 °F 6.8 °F 85% 29.91 in 10.0 mi ESE 8.1 mph - N/A   Clear
9:35 PM 10.4 °F -1.5 °F 6.8 °F 85% 29.91 in 10.0 mi ESE 8.1 mph - N/A   Clear
9:55 PM 12.2 °F 0.7 °F 8.6 °F 85% 29.92 in 10.0 mi ESE 8.1 mph - N/A   Clear
10:35 PM 17.6 °F 4.3 °F 14.0 °F 86% 29.92 in 10.0 mi SE 12.7 mph - N/A   Clear
10:55 PM 15.8 °F 3.4 °F 12.2 °F 86% 29.92 in 10.0 mi SE 10.4 mph - N/A   Clear
11:15 PM 17.6 °F 5.0 °F 12.2 °F 79% 29.92 in 10.0 mi SE 11.5 mph - N/A   Clear
11:35 PM 14.0 °F 2.9 °F 10.4 °F 86% 29.92 in 10.0 mi ESE 8.1 mph - N/A   Clear
11:55 PM 14.0 °F 2.0 °F 10.4 °F 86% 29.92 in 10.0 mi ESE 9.2 mph - N/A   Clear